TimeMDT,TemperatureF,Dew PointF,Humidity,Sea Level PressureIn,VisibilityMPH,Wind Direction,Wind SpeedMPH,Gust SpeedMPH,PrecipitationIn,Events,Conditions,WindDirDegrees,DateUTC
12:53 AM,64.0,33.1,31,29.97,10.0,ENE,9.2,-,N/A,,Clear,70,2013-07-25 06:53:00
1:53 AM,59.0,41.0,51,29.99,10.0,East,5.8,-,N/A,,Clear,80,2013-07-25 07:53:00
2:53 AM,57.9,43.0,58,30.00,10.0,East,6.9,-,N/A,,Clear,80,2013-07-25 08:53:00
3:53 AM,60.1,44.1,55,30.00,10.0,East,3.5,-,N/A,,Clear,90,2013-07-25 09:53:00
4:53 AM,57.0,45.0,64,30.04,10.0,East,6.9,-,N/A,,Clear,100,2013-07-25 10:53:00
5:53 AM,54.0,43.0,66,30.05,10.0,SSE,4.6,-,N/A,,Clear,160,2013-07-25 11:53:00
6:53 AM,55.9,44.1,64,30.06,10.0,South,4.6,-,N/A,,Clear,170,2013-07-25 12:53:00
7:53 AM,64.9,46.0,50,30.06,10.0,ENE,3.5,-,N/A,,Clear,70,2013-07-25 13:53:00
8:53 AM,68.0,46.9,47,30.07,10.0,NE,6.9,-,N/A,,Clear,50,2013-07-25 14:53:00
9:53 AM,70.0,48.9,47,30.09,10.0,NE,8.1,-,N/A,,Clear,50,2013-07-25 15:53:00
10:53 AM,71.1,48.9,45,30.08,10.0,NE,5.8,-,N/A,,Clear,50,2013-07-25 16:53:00
11:53 AM,75.0,51.1,43,30.08,10.0,Variable,3.5,-,N/A,,Clear,0,2013-07-25 17:53:00
12:53 PM,77.0,48.0,36,30.04,10.0,Calm,Calm,-,N/A,,Clear,0,2013-07-25 18:53:00
1:53 PM,80.1,52.0,38,30.02,10.0,NNW,4.6,-,N/A,,Clear,340,2013-07-25 19:53:00
2:53 PM,86.0,46.0,25,30.00,10.0,NNE,5.8,-,N/A,,Clear,30,2013-07-25 20:53:00
3:53 PM,88.0,39.0,18,29.97,10.0,NE,6.9,-,N/A,,Clear,40,2013-07-25 21:53:00
4:53 PM,86.0,51.1,30,29.97,10.0,West,3.5,-,N/A,,Clear,270,2013-07-25 22:53:00
5:53 PM,84.0,46.0,26,29.97,10.0,Calm,Calm,-,N/A,,Clear,0,2013-07-25 23:53:00
6:53 PM,84.9,35.1,17,29.96,10.0,Calm,Calm,-,N/A,,Partly Cloudy,0,2013-07-26 00:53:00
7:53 PM,73.0,44.1,35,29.98,10.0,SW,13.8,23.0,0.01,,Clear,220,2013-07-26 01:53:00
8:53 PM,75.0,39.9,28,29.97,10.0,SSW,10.4,-,N/A,,Clear,200,2013-07-26 02:53:00
9:53 PM,71.1,39.0,31,30.00,10.0,South,11.5,-,N/A,,Clear,190,2013-07-26 03:53:00
10:53 PM,66.9,41.0,39,30.02,10.0,SSW,9.2,-,N/A,,Clear,210,2013-07-26 04:53:00
11:53 PM,64.9,39.0,39,30.02,10.0,SSW,8.1,-,N/A,,Clear,200,2013-07-26 05:53:00